Time[GMT],temperature[C](50m),salinity[psu](50m),sigma_t[kg/m^3](50m),conductivity[msiemens/cm](50m)
2005-05-31 18:00,6.15,30.797,24.216,30.758
2005-05-31 19:00,6.22,30.777,24.191,30.799
2005-05-31 20:00,6.19,30.808,24.219,30.804
2005-05-31 21:00,6.24,30.802,24.209,30.841
2005-05-31 22:00,6.24,30.804,24.210,30.843
2005-05-31 23:00,6.39,30.754,24.152,30.919
2005-06-01 00:00,6.21,30.819,24.226,30.828
2005-06-01 01:00,6.26,30.798,24.203,30.851
2005-06-01 02:00,6.17,30.812,24.225,30.790
2005-06-01 03:00,6.14,30.803,24.222,30.759
2005-06-01 04:00,6.12,30.807,24.227,30.744
2005-06-01 05:00,6.15,30.804,24.221,30.769
2005-06-01 06:00,6.21,30.779,24.194,30.791
2005-06-01 07:00,6.24,30.781,24.192,30.823
2005-06-01 08:00,6.25,30.785,24.194,30.830
2005-06-01 09:00,6.22,30.815,24.221,30.835
2005-06-01 10:00,6.36,30.752,24.154,30.896
2005-06-01 11:00,6.47,30.735,24.127,30.968
2005-06-01 12:00,6.27,30.800,24.203,30.864
2005-06-01 13:00,6.26,30.797,24.202,30.856
2005-06-01 14:00,6.14,30.821,24.236,30.773
2005-06-01 15:00,6.08,30.815,24.238,30.719
2005-06-01 16:00,6.12,30.812,24.231,30.750
2005-06-01 17:00,6.18,30.803,24.217,30.788
2005-06-01 18:00,6.23,30.786,24.197,30.817
2005-06-01 19:00,6.38,30.737,24.141,30.895
2005-06-01 20:00,6.35,30.754,24.157,30.886
2005-06-01 21:00,6.36,30.765,24.165,30.908
2005-06-01 22:00,6.39,30.764,24.160,30.928
2005-06-01 23:00,6.44,30.756,24.149,30.959
2005-06-02 00:00,6.43,30.761,24.154,30.957
2005-06-02 01:00,6.33,30.788,24.187,30.900
2005-06-02 02:00,6.30,30.788,24.190,30.875
2005-06-02 03:00,6.25,30.798,24.204,30.848
2005-06-02 04:00,6.14,30.795,24.215,30.755
2005-06-02 05:00,6.26,30.772,24.183,30.830
2005-06-02 06:00,6.25,30.793,24.200,30.837
2005-06-02 07:00,6.36,30.758,24.160,30.896
2005-06-02 08:00,6.38,30.738,24.141,30.896
2005-06-02 09:00,6.34,30.771,24.172,30.898
2005-06-02 10:00,6.28,30.798,24.201,30.871
2005-06-02 11:00,6.36,30.769,24.167,30.912
2005-06-02 12:00,6.33,30.779,24.180,30.892
2005-06-02 13:00,6.33,30.779,24.179,30.896
2005-06-02 14:00,6.32,30.786,24.186,30.889
2005-06-02 15:00,6.28,30.791,24.195,30.863
2005-06-02 16:00,6.21,30.793,24.204,30.810
2005-06-02 17:00,6.24,30.781,24.192,30.823
2005-06-02 18:00,6.28,30.782,24.188,30.852
2005-06-02 19:00,6.25,30.791,24.199,30.835
2005-06-02 20:00,6.36,30.755,24.157,30.896
2005-06-02 21:00,6.30,30.775,24.180,30.868
2005-06-02 22:00,6.25,30.799,24.206,30.844
2005-06-02 23:00,6.30,30.788,24.191,30.873
2005-06-03 00:00,6.30,30.785,24.188,30.872
2005-06-03 01:00,6.29,30.787,24.191,30.868
2005-06-03 02:00,6.25,30.797,24.203,30.846
2005-06-03 03:00,6.22,30.802,24.211,30.822
2005-06-03 04:00,6.22,30.797,24.206,30.821
2005-06-03 05:00,6.16,30.800,24.216,30.775
2005-06-03 06:00,6.15,30.794,24.212,30.761
2005-06-03 07:00,6.27,30.778,24.186,30.840
2005-06-03 08:00,6.31,30.768,24.173,30.867
2005-06-03 09:00,6.33,30.772,24.174,30.890
2005-06-03 10:00,6.34,30.763,24.166,30.886
2005-06-03 11:00,6.28,30.780,24.187,30.853
2005-06-03 12:00,6.27,30.772,24.181,30.838
2005-06-03 13:00,6.25,30.782,24.192,30.827
2005-06-03 14:00,6.31,30.755,24.163,30.853
2005-06-03 15:00,6.24,30.787,24.197,30.825
2005-06-03 16:00,6.22,30.799,24.209,30.817
2005-06-03 17:00,6.18,30.780,24.198,30.775
2005-06-03 18:00,6.18,30.782,24.200,30.776
2005-06-03 19:00,6.22,30.777,24.191,30.802
2005-06-03 20:00,6.30,30.760,24.168,30.850
2005-06-03 21:00,6.35,30.743,24.148,30.876
2005-06-03 22:00,6.28,30.767,24.176,30.842
2005-06-03 23:00,6.24,30.785,24.195,30.824
2005-06-04 00:00,6.22,30.781,24.194,30.806
2005-06-04 01:00,6.25,30.766,24.179,30.812
2005-06-04 02:00,6.22,30.775,24.190,30.796
2005-06-04 03:00,6.23,30.778,24.191,30.810
2005-06-04 04:00,6.21,30.788,24.201,30.804
2005-06-04 05:00,6.26,30.772,24.183,30.826
2005-06-04 06:00,6.15,30.773,24.197,30.739
2005-06-04 07:00,6.19,30.774,24.193,30.773
2005-06-04 08:00,6.25,30.766,24.179,30.818
2005-06-04 09:00,6.35,30.722,24.132,30.859
2005-06-04 10:00,6.33,30.734,24.144,30.855
2005-06-04 11:00,6.31,30.746,24.156,30.843
2005-06-04 12:00,6.32,30.731,24.142,30.843
2005-06-04 13:00,6.33,30.726,24.137,30.846
2005-06-04 14:00,6.35,30.720,24.131,30.852
2005-06-04 15:00,6.32,30.729,24.141,30.839
2005-06-04 16:00,6.28,30.747,24.161,30.822
2005-06-04 17:00,6.24,30.769,24.183,30.807
2005-06-04 18:00,6.21,30.771,24.188,30.787
2005-06-04 19:00,6.25,30.740,24.158,30.794
2005-06-04 20:00,6.25,30.739,24.158,30.791
2005-06-04 21:00,6.30,30.740,24.153,30.829
2005-06-04 22:00,6.31,30.732,24.145,30.837
2005-06-04 23:00,6.34,30.722,24.133,30.852
2005-06-05 00:00,6.37,30.712,24.121,30.866
2005-06-05 01:00,6.42,30.692,24.101,30.885
2005-06-05 02:00,6.39,30.709,24.118,30.875
2005-06-05 03:00,6.31,30.735,24.147,30.838
2005-06-05 04:00,6.35,30.720,24.131,30.854
2005-06-05 05:00,6.21,30.776,24.192,30.789
2005-06-05 06:00,6.32,30.724,24.138,30.834
2005-06-05 07:00,6.22,30.760,24.178,30.785
2005-06-05 08:00,6.24,30.759,24.175,30.799
2005-06-05 09:00,6.27,30.748,24.162,30.816
2005-06-05 10:00,6.34,30.721,24.133,30.844
2005-06-05 11:00,6.29,30.745,24.158,30.830
2005-06-05 12:00,6.22,30.768,24.184,30.797
2005-06-05 13:00,6.31,30.733,24.146,30.834
2005-06-05 14:00,6.39,30.714,24.121,30.881
2005-06-05 15:00,6.39,30.715,24.123,30.880
2005-06-05 16:00,6.37,30.718,24.127,30.872
2005-06-05 17:00,6.37,30.721,24.129,30.871
2005-06-05 18:00,6.32,30.733,24.144,30.847
2005-06-05 19:00,6.26,30.753,24.168,30.811
2005-06-05 20:00,6.32,30.727,24.140,30.835
2005-06-05 21:00,6.28,30.742,24.157,30.815
2005-06-05 22:00,6.32,30.731,24.142,30.843
2005-06-05 23:00,6.37,30.717,24.126,30.872
2005-06-06 00:00,6.41,30.708,24.114,30.892
2005-06-06 01:00,6.39,30.714,24.122,30.879
2005-06-06 02:00,6.37,30.724,24.131,30.879
2005-06-06 03:00,6.46,30.689,24.093,30.921
2005-06-06 04:00,6.46,30.690,24.093,30.917
2005-06-06 05:00,6.39,30.714,24.120,30.885
2005-06-06 06:00,6.35,30.721,24.131,30.859
2005-06-06 07:00,6.23,30.751,24.170,30.782
2005-06-06 08:00,6.30,30.718,24.135,30.817
2005-06-06 09:00,6.36,30.708,24.121,30.849
2005-06-06 10:00,6.36,30.711,24.122,30.859
2005-06-06 11:00,6.43,30.695,24.101,30.900
2005-06-06 12:00,6.51,30.670,24.072,30.941
2005-06-06 13:00,6.65,30.632,24.025,31.020
2005-06-06 14:00,6.85,30.541,23.928,31.103
2005-06-06 15:00,6.48,30.689,24.091,30.932
2005-06-06 16:00,6.37,30.727,24.134,30.876
2005-06-06 17:00,6.42,30.706,24.110,30.903
2005-06-06 18:00,6.30,30.734,24.148,30.830
2005-06-06 19:00,6.38,30.711,24.121,30.869
2005-06-06 20:00,6.28,30.726,24.143,30.805
2005-06-06 21:00,6.39,30.702,24.112,30.868
2005-06-06 22:00,6.41,30.696,24.105,30.884
2005-06-06 23:00,6.43,30.693,24.100,30.893
2005-06-07 00:00,6.41,30.697,24.105,30.886
2005-06-07 01:00,6.77,30.597,23.982,31.085
2005-06-07 02:00,6.53,30.663,24.063,30.955
2005-06-07 03:00,6.55,30.669,24.066,30.970
2005-06-07 04:00,6.38,30.715,24.123,30.878
2005-06-07 05:00,6.49,30.674,24.077,30.928
2005-06-07 06:00,6.27,30.732,24.150,30.800
2005-06-07 07:00,6.22,30.739,24.161,30.768
2005-06-07 08:00,6.28,30.718,24.138,30.794
2005-06-07 09:00,6.31,30.710,24.128,30.813
2005-06-07 10:00,6.39,30.676,24.092,30.844
2005-06-07 11:00,6.40,30.684,24.096,30.867
2005-06-07 12:00,6.44,30.682,24.090,30.893
2005-06-07 13:00,6.55,30.652,24.052,30.961
2005-06-07 14:00,6.43,30.690,24.097,30.897
2005-06-07 15:00,6.38,30.704,24.115,30.864
2005-06-07 16:00,6.44,30.691,24.096,30.906
2005-06-07 17:00,6.45,30.691,24.095,30.915
2005-06-07 18:00,6.38,30.710,24.119,30.869
2005-06-07 19:00,6.33,30.716,24.130,30.836
2005-06-07 20:00,6.16,30.689,24.129,30.675
2005-06-07 21:00,6.20,30.693,24.127,30.712
2005-06-07 22:00,6.23,30.692,24.123,30.730
2005-06-07 23:00,6.42,30.668,24.081,30.869
2005-06-08 00:00,6.42,30.690,24.099,30.882
2005-06-08 01:00,6.47,30.676,24.082,30.913
2005-06-08 02:00,6.41,30.701,24.108,30.887
2005-06-08 03:00,6.43,30.702,24.106,30.909
2005-06-08 04:00,6.44,30.710,24.112,30.917
2005-06-08 05:00,6.45,30.709,24.109,30.927
2005-06-08 06:00,6.39,30.713,24.120,30.879
2005-06-08 07:00,6.40,30.707,24.115,30.882
2005-06-08 08:00,6.36,30.712,24.123,30.852
2005-06-08 09:00,6.24,30.678,24.111,30.725
2005-06-08 10:00,6.19,30.698,24.132,30.708
2005-06-08 11:00,6.32,30.683,24.105,30.801
2005-06-08 12:00,6.50,30.662,24.067,30.923
2005-06-08 13:00,6.45,30.689,24.094,30.910
2005-06-08 14:00,6.40,30.698,24.107,30.876
2005-06-08 15:00,6.38,30.720,24.126,30.883
2005-06-08 16:00,6.58,30.691,24.079,31.019
2005-06-08 17:00,6.54,30.718,24.106,31.006
2005-06-08 18:00,6.52,30.719,24.109,30.991
2005-06-08 19:00,6.59,30.663,24.056,31.002
2005-06-08 20:00,6.37,30.716,24.125,30.871
2005-06-08 21:00,6.44,30.704,24.107,30.914
2005-06-08 22:00,6.47,30.676,24.081,30.910
2005-06-08 23:00,6.50,30.666,24.070,30.932
2005-06-09 00:00,6.47,30.698,24.099,30.935
2005-06-09 01:00,6.49,30.700,24.097,30.954
2005-06-09 02:00,6.53,30.679,24.077,30.965
2005-06-09 03:00,6.82,30.611,23.987,31.138
2005-06-09 04:00,6.62,30.689,24.073,31.048
2005-06-09 05:00,6.63,30.675,24.061,31.041
2005-06-09 06:00,6.66,30.661,24.046,31.059
2005-06-09 07:00,6.55,30.701,24.091,31.004
2005-06-09 08:00,6.53,30.708,24.100,30.988
2005-06-09 09:00,6.32,30.719,24.133,30.828
2005-06-09 10:00,6.36,30.701,24.115,30.846
2005-06-09 11:00,6.32,30.687,24.109,30.797
2005-06-09 12:00,6.36,30.685,24.102,30.830
2005-06-09 13:00,6.49,30.683,24.085,30.935
2005-06-09 14:00,6.45,30.697,24.101,30.916
2005-06-09 15:00,6.59,30.695,24.082,31.026
2005-06-09 16:00,6.48,30.727,24.121,30.966
2005-06-09 17:00,6.63,30.681,24.066,31.048
2005-06-09 18:00,6.59,30.692,24.079,31.024
2005-06-09 19:00,6.63,30.674,24.060,31.044
2005-06-09 20:00,6.59,30.688,24.076,31.024
2005-06-09 21:00,6.54,30.697,24.089,30.993
2005-06-09 22:00,6.41,30.704,24.111,30.887
2005-06-09 23:00,6.46,30.690,24.094,30.917
2005-06-10 00:00,6.44,30.704,24.107,30.914
2005-06-10 01:00,6.44,30.711,24.113,30.919
2005-06-10 02:00,6.51,30.696,24.092,30.966
2005-06-10 03:00,6.61,30.673,24.062,31.022
2005-06-10 04:00,6.82,30.601,23.979,31.128
2005-06-10 05:00,6.50,30.724,24.115,30.980
2005-06-10 06:00,6.61,30.679,24.066,31.032
2005-06-10 07:00,6.55,30.707,24.096,31.003
2005-06-10 08:00,6.51,30.698,24.094,30.966
2005-06-10 09:00,6.38,30.720,24.127,30.879
2005-06-10 10:00,6.37,30.705,24.116,30.861
2005-06-10 11:00,6.36,30.714,24.124,30.862
2005-06-10 12:00,6.38,30.699,24.111,30.858
2005-06-10 13:00,6.35,30.705,24.119,30.843
2005-06-10 14:00,6.49,30.691,24.091,30.944
2005-06-10 15:00,6.56,30.676,24.070,30.988
2005-06-10 16:00,6.64,30.659,24.047,31.035
2005-06-10 17:00,6.41,30.746,24.144,30.929
2005-06-10 18:00,6.47,30.737,24.129,30.969
2005-06-10 19:00,6.51,30.722,24.112,30.988
2005-06-10 20:00,6.55,30.706,24.095,31.005
2005-06-10 21:00,6.48,30.717,24.112,30.960
2005-06-10 22:00,6.48,30.703,24.101,30.950
2005-06-10 23:00,6.43,30.705,24.110,30.904
2005-06-11 00:00,6.31,30.718,24.134,30.819
2005-06-11 01:00,6.35,30.720,24.130,30.859
2005-06-11 02:00,6.44,30.700,24.104,30.911
2005-06-11 03:00,6.42,30.738,24.136,30.930
2005-06-11 04:00,6.55,30.694,24.085,30.997
2005-06-11 05:00,6.48,30.769,24.154,31.003
2005-06-11 06:00,6.54,30.722,24.109,31.011
2005-06-11 07:00,6.59,30.706,24.091,31.038
2005-06-11 08:00,6.53,30.727,24.115,31.008
2005-06-11 09:00,6.49,30.730,24.122,30.977
2005-06-11 10:00,6.44,30.725,24.123,30.937
2005-06-11 11:00,6.36,30.716,24.126,30.863
2005-06-11 12:00,6.43,30.717,24.118,30.922
2005-06-11 13:00,6.40,30.720,24.125,30.895
2005-06-11 14:00,6.45,30.699,24.102,30.915
2005-06-11 15:00,6.56,30.674,24.069,30.985
2005-06-11 16:00,6.46,30.745,24.137,30.965
2005-06-11 17:00,6.45,30.776,24.163,30.986
2005-06-11 18:00,6.46,30.760,24.149,30.983
2005-06-11 19:00,6.61,30.719,24.099,31.064
2005-06-11 20:00,6.65,30.687,24.068,31.072
2005-06-11 21:00,6.54,30.689,24.083,30.981
2005-06-11 22:00,6.45,30.731,24.127,30.943
2005-06-11 23:00,6.47,30.717,24.114,30.949
2005-06-12 00:00,6.40,30.701,24.110,30.881
2005-06-12 01:00,6.39,30.706,24.114,30.877
2005-06-12 02:00,6.42,30.734,24.134,30.926
2005-06-12 03:00,6.55,30.675,24.071,30.976
2005-06-12 04:00,6.49,30.718,24.112,30.964
2005-06-12 05:00,6.67,30.665,24.048,31.065
2005-06-12 06:00,6.78,30.632,24.008,31.129
2005-06-12 07:00,6.72,30.688,24.060,31.128
2005-06-12 08:00,6.73,30.675,24.048,31.123
2005-06-12 09:00,6.65,30.720,24.094,31.098
2005-06-12 10:00,6.62,30.739,24.112,31.094
2005-06-12 11:00,6.49,30.739,24.128,30.991
2005-06-12 12:00,6.45,30.752,24.143,30.970
2005-06-12 13:00,6.48,30.726,24.120,30.967
2005-06-12 14:00,6.46,30.730,24.125,30.954
2005-06-12 15:00,6.46,30.720,24.117,30.947
2005-06-12 16:00,6.54,30.685,24.080,30.980
2005-06-12 17:00,6.58,30.690,24.079,31.013
2005-06-12 18:00,6.70,30.696,24.069,31.116
2005-06-12 19:00,6.71,30.713,24.081,31.146
2005-06-12 20:00,6.72,30.707,24.075,31.148
2005-06-12 21:00,6.78,30.670,24.038,31.161
2005-06-12 22:00,6.68,30.737,24.104,31.138
2005-06-12 23:00,6.60,30.728,24.106,31.069
2005-06-13 00:00,6.57,30.739,24.119,31.056
2005-06-13 01:00,6.49,30.754,24.140,31.001
2005-06-13 02:00,6.50,30.741,24.129,30.996
2005-06-13 03:00,6.50,30.739,24.128,30.995
2005-06-13 04:00,6.61,30.750,24.123,31.094
2005-06-13 05:00,6.62,30.714,24.093,31.073
2005-06-13 06:00,6.76,30.671,24.042,31.143
2005-06-13 07:00,6.69,30.729,24.096,31.139
2005-06-13 08:00,6.68,30.736,24.103,31.139
2005-06-13 09:00,6.76,30.684,24.052,31.156
2005-06-13 10:00,6.64,30.763,24.129,31.132
2005-06-13 11:00,6.63,30.770,24.136,31.127
2005-06-13 12:00,6.55,30.778,24.152,31.074
2005-06-13 13:00,6.58,30.763,24.136,31.085
2005-06-13 14:00,6.52,30.757,24.139,31.029
2005-06-13 15:00,6.58,30.761,24.135,31.079
2005-06-13 16:00,6.57,30.740,24.119,31.052
2005-06-13 17:00,6.59,30.742,24.118,31.073
2005-06-13 18:00,6.70,30.691,24.065,31.115
2005-06-13 19:00,6.68,30.736,24.103,31.137
2005-06-13 20:00,6.71,30.763,24.120,31.193
2005-06-13 21:00,6.73,30.758,24.114,31.200
2005-06-13 22:00,6.72,30.750,24.108,31.188
2005-06-13 23:00,6.71,30.769,24.125,31.195
2005-06-14 00:00,6.61,30.798,24.159,31.142
2005-06-14 01:00,6.61,30.752,24.125,31.095
2005-06-14 02:00,6.57,30.792,24.161,31.099
2005-06-14 03:00,6.58,30.790,24.158,31.107
2005-06-14 04:00,6.59,30.754,24.128,31.079
2005-06-14 05:00,6.70,30.704,24.075,31.126
2005-06-14 06:00,6.76,30.738,24.095,31.207
2005-06-14 07:00,6.67,30.780,24.139,31.171
2005-06-14 08:00,6.68,30.783,24.139,31.186
2005-06-14 09:00,6.78,30.736,24.089,31.227
2005-06-14 10:00,6.70,30.776,24.132,31.194
2005-06-14 11:00,6.70,30.772,24.128,31.192
2005-06-14 12:00,6.65,30.783,24.143,31.157
2005-06-14 13:00,6.61,30.794,24.157,31.135
2005-06-14 14:00,6.59,30.775,24.144,31.107
2005-06-14 15:00,6.61,30.774,24.141,31.120
2005-06-14 16:00,6.65,30.753,24.120,31.129
2005-06-14 17:00,6.67,30.733,24.101,31.133
2005-06-14 18:00,6.72,30.713,24.080,31.151
2005-06-14 19:00,6.69,30.743,24.107,31.157
2005-06-14 20:00,6.76,30.710,24.072,31.187
2005-06-14 21:00,6.81,30.699,24.057,31.214
2005-06-14 22:00,6.69,30.763,24.122,31.175
2005-06-14 23:00,6.57,30.814,24.178,31.120
2005-06-15 00:00,6.67,30.752,24.117,31.144
2005-06-15 01:00,6.62,30.778,24.143,31.131
2005-06-15 02:00,6.61,30.769,24.137,31.116
2005-06-15 03:00,6.56,30.790,24.160,31.094
2005-06-15 04:00,6.57,30.748,24.125,31.061
2005-06-15 05:00,6.55,30.805,24.173,31.095
2005-06-15 06:00,6.68,30.717,24.087,31.127
2005-06-15 07:00,6.70,30.703,24.074,31.128
2005-06-15 08:00,6.68,30.741,24.107,31.144
2005-06-15 09:00,6.59,30.786,24.153,31.113
2005-06-15 10:00,6.71,30.720,24.086,31.147
2005-06-15 11:00,6.61,30.771,24.139,31.114
2005-06-15 12:00,6.60,30.760,24.132,31.094
2005-06-15 13:00,6.55,30.776,24.150,31.071
2005-06-15 14:00,6.56,30.771,24.145,31.074
2005-06-15 15:00,6.53,30.796,24.169,31.071
2005-06-15 16:00,6.53,30.768,24.146,31.050
2005-06-15 17:00,6.57,30.770,24.143,31.084
2005-06-15 18:00,6.55,30.779,24.153,31.071
2005-06-15 19:00,6.73,30.674,24.048,31.125
2005-06-15 20:00,6.69,30.722,24.090,31.138
2005-06-15 21:00,6.73,30.714,24.079,31.161
2005-06-15 22:00,6.81,30.698,24.056,31.209
2005-06-15 23:00,6.84,30.684,24.042,31.220
2005-06-16 00:00,6.63,30.763,24.131,31.121
2005-06-16 01:00,6.63,30.749,24.119,31.114
2005-06-16 02:00,6.56,30.771,24.146,31.072
2005-06-16 03:00,6.56,30.758,24.135,31.060
2005-06-16 04:00,6.56,30.765,24.141,31.068
2005-06-16 05:00,6.72,30.709,24.076,31.149
2005-06-16 06:00,6.64,30.737,24.109,31.107
2005-06-16 07:00,6.62,30.753,24.123,31.110
2005-06-16 08:00,6.84,30.679,24.038,31.218
2005-06-16 09:00,6.78,30.723,24.079,31.213
2005-06-16 10:00,6.92,30.666,24.017,31.275
2005-06-16 11:00,6.91,30.664,24.016,31.264
2005-06-16 12:00,6.70,30.749,24.110,31.173
2005-06-16 13:00,6.67,30.732,24.101,31.127
2005-06-16 14:00,6.59,30.755,24.129,31.086
2005-06-16 15:00,6.56,30.759,24.136,31.066
2005-06-16 16:00,6.57,30.749,24.126,31.062
2005-06-16 17:00,6.56,30.754,24.132,31.059
2005-06-16 18:00,6.72,30.691,24.062,31.134
2005-06-16 19:00,6.65,30.727,24.099,31.111
2005-06-16 20:00,6.78,30.717,24.075,31.202
2005-06-16 21:00,7.10,30.663,23.992,31.419
2005-06-16 22:00,6.97,30.710,24.045,31.354
2005-06-16 23:00,6.87,30.743,24.084,31.303
2005-06-17 00:00,6.91,30.720,24.060,31.319
2005-06-17 01:00,6.81,30.767,24.111,31.273
2005-06-17 02:00,6.74,30.715,24.079,31.169
2005-06-17 03:00,6.66,30.762,24.126,31.145
2005-06-17 04:00,6.71,30.735,24.098,31.167
2005-06-17 05:00,6.58,30.763,24.136,31.086
2005-06-17 06:00,6.66,30.738,24.107,31.125
2005-06-17 07:00,6.76,30.750,24.103,31.223
2005-06-17 08:00,6.83,30.817,24.147,31.338
2005-06-17 09:00,7.13,30.720,24.032,31.496
2005-06-17 10:00,7.36,30.727,24.008,31.693
2005-06-17 11:00,7.41,30.754,24.022,31.759
2005-06-17 12:00,7.32,30.859,24.116,31.782
2005-06-17 13:00,7.17,30.842,24.123,31.642
2005-06-17 14:00,7.06,30.834,24.131,31.544
2005-06-17 15:00,7.15,30.834,24.119,31.618
2005-06-17 16:00,6.89,30.785,24.115,31.354
2005-06-17 17:00,6.93,30.731,24.067,31.338
2005-06-17 18:00,6.95,30.807,24.125,31.424
2005-06-17 19:00,7.12,30.806,24.102,31.568
2005-06-17 20:00,7.31,30.823,24.090,31.741
2005-06-17 21:00,7.32,30.877,24.131,31.799
2005-06-17 22:00,7.31,30.844,24.106,31.760
2005-06-17 23:00,7.46,30.835,24.079,31.876
2005-06-18 00:00,7.49,30.852,24.089,31.917
2005-06-18 01:00,7.39,30.840,24.093,31.823
2005-06-18 02:00,7.45,30.881,24.117,31.911
2005-06-18 03:00,7.22,30.861,24.131,31.701
2005-06-18 04:00,7.10,30.834,24.126,31.577
2005-06-18 05:00,7.19,30.870,24.143,31.685
2005-06-18 06:00,7.26,30.900,24.157,31.771
2005-06-18 07:00,7.11,30.857,24.143,31.607
2005-06-18 08:00,7.00,30.760,24.081,31.424
2005-06-18 09:00,7.40,30.890,24.131,31.878
2005-06-18 10:00,7.39,30.894,24.135,31.873
2005-06-18 11:00,7.37,30.872,24.120,31.836
2005-06-18 12:00,7.40,30.884,24.126,31.872
2005-06-18 13:00,7.39,30.856,24.105,31.838
2005-06-18 14:00,7.39,30.881,24.125,31.861
2005-06-18 15:00,7.39,30.893,24.134,31.872
2005-06-18 16:00,7.34,30.898,24.144,31.835
2005-06-18 17:00,7.35,30.895,24.141,31.841
2005-06-18 18:00,7.32,30.896,24.146,31.817
2005-06-18 19:00,7.35,30.896,24.142,31.842
2005-06-18 20:00,7.26,30.854,24.121,31.728
2005-06-18 21:00,7.36,30.946,24.180,31.897
2005-06-18 22:00,7.47,30.891,24.122,31.937
2005-06-18 23:00,7.48,30.908,24.134,31.961
2005-06-19 00:00,7.45,30.916,24.144,31.943
2005-06-19 01:00,7.46,30.858,24.098,31.898
2005-06-19 02:00,7.43,30.888,24.125,31.901
2005-06-19 03:00,7.47,30.911,24.137,31.955
2005-06-19 04:00,7.43,30.900,24.134,31.912
2005-06-19 05:00,7.30,30.876,24.133,31.782
2005-06-19 06:00,7.30,30.891,24.145,31.796
2005-06-19 07:00,7.30,30.897,24.149,31.801
2005-06-19 08:00,7.28,30.878,24.137,31.767
2005-06-19 09:00,7.34,30.859,24.114,31.799
2005-06-19 10:00,7.51,30.861,24.093,31.942
2005-06-19 11:00,7.45,30.907,24.137,31.935
2005-06-19 12:00,7.47,30.888,24.120,31.934
2005-06-19 13:00,7.46,30.881,24.115,31.919
2005-06-19 14:00,7.55,30.856,24.083,31.970
2005-06-19 15:00,7.46,30.882,24.116,31.920
2005-06-19 16:00,7.47,30.881,24.114,31.927
2005-06-19 17:00,7.41,30.878,24.120,31.875
2005-06-19 18:00,7.42,30.883,24.122,31.888
2005-06-19 19:00,7.40,30.885,24.127,31.873
2005-06-19 20:00,7.39,30.884,24.127,31.864
2005-06-19 21:00,7.40,30.894,24.133,31.881
2005-06-19 22:00,7.47,30.884,24.116,31.930
2005-06-19 23:00,7.48,30.880,24.112,31.935
2005-06-20 00:00,7.50,30.869,24.100,31.941
2005-06-20 01:00,7.60,30.818,24.047,31.976
2005-06-20 02:00,7.47,30.878,24.112,31.925
2005-06-20 03:00,7.50,30.861,24.095,31.934
2005-06-20 04:00,7.50,30.866,24.098,31.938
2005-06-20 05:00,7.43,30.899,24.134,31.911
2005-06-20 06:00,7.38,30.904,24.144,31.874
2005-06-20 07:00,7.42,30.902,24.137,31.905
2005-06-20 08:00,7.38,30.881,24.126,31.853
2005-06-20 09:00,7.41,30.877,24.119,31.874
2005-06-20 10:00,7.41,30.906,24.142,31.901
2005-06-20 11:00,7.40,30.910,24.146,31.896
2005-06-20 12:00,7.41,30.903,24.139,31.898
2005-06-20 13:00,7.46,30.868,24.105,31.907
2005-06-20 14:00,7.50,30.846,24.083,31.920
2005-06-20 15:00,7.41,30.888,24.127,31.884
2005-06-20 16:00,7.45,30.872,24.109,31.902
2005-06-20 17:00,7.43,30.885,24.123,31.898
2005-06-20 18:00,7.43,30.888,24.125,31.901
2005-06-20 19:00,7.41,30.904,24.140,31.899
2005-06-20 20:00,7.41,30.903,24.139,31.898
2005-06-20 21:00,7.43,30.889,24.126,31.902
2005-06-20 22:00,7.46,30.876,24.111,31.914
2005-06-20 23:00,7.42,30.891,24.128,31.895
2005-06-21 00:00,7.44,30.872,24.111,31.894
2005-06-21 01:00,7.50,30.839,24.077,31.913
2005-06-21 02:00,7.49,30.835,24.075,31.901
2005-06-21 03:00,7.44,30.859,24.101,31.882
2005-06-21 04:00,7.38,30.892,24.135,31.863
2005-06-21 05:00,7.44,30.875,24.113,31.897
2005-06-21 06:00,7.41,30.890,24.129,31.886
2005-06-21 07:00,7.39,30.900,24.140,31.879
2005-06-21 08:00,7.40,30.903,24.141,31.890
2005-06-21 09:00,7.42,30.892,24.129,31.896
2005-06-21 10:00,7.42,30.891,24.128,31.895
2005-06-21 11:00,7.45,30.875,24.112,31.905
2005-06-21 12:00,7.34,30.920,24.162,31.856
2005-06-21 13:00,7.39,30.890,24.131,31.869
2005-06-21 14:00,7.45,30.859,24.099,31.890
2005-06-21 15:00,7.43,30.869,24.110,31.883
2005-06-21 16:00,7.45,30.860,24.100,31.891
2005-06-21 17:00,7.43,30.866,24.107,31.880
2005-06-21 18:00,7.43,30.871,24.112,31.885
2005-06-21 19:00,7.40,30.890,24.131,31.878
2005-06-21 20:00,7.40,30.888,24.129,31.876
2005-06-21 21:00,7.42,30.879,24.119,31.884
2005-06-21 22:00,7.44,30.873,24.112,31.895
2005-06-21 23:00,7.43,30.871,24.112,31.885
2005-06-22 00:00,7.49,30.835,24.075,31.901
2005-06-22 01:00,7.44,30.863,24.104,31.886
2005-06-22 02:00,7.57,30.793,24.031,31.928
2005-06-22 03:00,7.46,30.858,24.098,31.898
2005-06-22 04:00,7.47,30.846,24.087,31.895
2005-06-22 05:00,7.37,30.897,24.140,31.859
2005-06-22 06:00,7.49,30.834,24.074,31.900
2005-06-22 07:00,7.39,30.888,24.130,31.867
2005-06-22 08:00,7.43,30.867,24.108,31.881
2005-06-22 09:00,7.50,30.837,24.075,31.911
2005-06-22 10:00,7.44,30.868,24.107,31.890
2005-06-22 11:00,7.46,30.843,24.086,31.884
2005-06-22 12:00,7.45,30.857,24.097,31.888
2005-06-22 13:00,7.60,30.783,24.020,31.944
2005-06-22 14:00,7.37,30.900,24.142,31.862
2005-06-22 15:00,7.50,30.833,24.072,31.907
2005-06-22 16:00,7.64,30.769,24.003,31.964
2005-06-22 17:00,7.60,30.782,24.019,31.943
2005-06-22 18:00,7.49,30.839,24.078,31.905
2005-06-22 19:00,7.51,30.823,24.063,31.906
2005-06-22 20:00,7.46,30.849,24.090,31.889
2005-06-22 21:00,7.43,30.865,24.107,31.879
2005-06-22 22:00,7.49,30.833,24.073,31.899
2005-06-22 23:00,7.43,30.865,24.107,31.879
2005-06-23 00:00,7.40,30.889,24.130,31.877
2005-06-23 01:00,7.52,30.818,24.058,31.910
2005-06-23 02:00,7.56,30.805,24.042,31.931
2005-06-23 03:00,7.51,30.834,24.072,31.917
2005-06-23 04:00,7.74,30.730,23.959,32.010
2005-06-23 05:00,7.73,30.736,23.965,32.007
2005-06-23 06:00,7.56,30.817,24.051,31.942
2005-06-23 07:00,7.47,30.844,24.085,31.893
2005-06-23 08:00,7.43,30.865,24.107,31.879